TimeCST,TemperatureF,Dew PointF,Humidity,Sea Level PressureIn,VisibilityMPH,Wind Direction,Wind SpeedMPH,Gust SpeedMPH,PrecipitationIn,Events,Conditions,WindDirDegrees,DateUTC
12:15 AM,39.2,32.0,75,30.03,10.0,South,13.8,-,N/A,,Mostly Cloudy,170,2012-11-06 06:15:00
12:35 AM,39.2,32.0,75,30.03,10.0,South,12.7,-,N/A,,Scattered Clouds,180,2012-11-06 06:35:00
12:55 AM,39.2,32.0,75,30.02,10.0,South,13.8,-,N/A,,Clear,190,2012-11-06 06:55:00
1:15 AM,39.2,32.0,75,30.02,10.0,SSW,9.2,-,N/A,,Clear,200,2012-11-06 07:15:00
1:35 AM,39.2,32.0,75,30.01,10.0,SSW,10.4,-,N/A,,Clear,200,2012-11-06 07:35:00
1:55 AM,39.2,32.0,75,30.01,10.0,SSW,9.2,-,N/A,,Clear,200,2012-11-06 07:55:00
2:15 AM,39.2,32.0,75,30.03,10.0,SW,5.8,-,N/A,,Scattered Clouds,230,2012-11-06 08:15:00
2:35 AM,39.2,32.0,75,30.05,10.0,NNW,5.8,-,N/A,,Mostly Cloudy,340,2012-11-06 08:35:00
2:55 AM,39.2,32.0,75,30.04,10.0,Calm,Calm,-,N/A,,Scattered Clouds,0,2012-11-06 08:55:00
3:15 AM,37.4,30.2,75,30.02,10.0,SW,5.8,-,N/A,,Scattered Clouds,220,2012-11-06 09:15:00
3:35 AM,37.4,30.2,75,30.02,10.0,SW,5.8,-,N/A,,Scattered Clouds,230,2012-11-06 09:35:00
3:55 AM,39.2,32.0,75,30.02,10.0,SW,5.8,-,N/A,,Mostly Cloudy,230,2012-11-06 09:55:00
4:15 AM,39.2,32.0,75,30.01,10.0,WSW,5.8,-,N/A,,Overcast,240,2012-11-06 10:15:00
4:35 AM,41.0,33.8,76,30.02,10.0,West,8.1,-,N/A,,Mostly Cloudy,270,2012-11-06 10:35:00
4:55 AM,41.0,33.8,76,30.02,10.0,West,8.1,-,N/A,,Mostly Cloudy,260,2012-11-06 10:55:00
5:15 AM,42.8,33.8,70,30.02,10.0,WNW,8.1,-,N/A,,Mostly Cloudy,290,2012-11-06 11:15:00
5:35 AM,42.8,33.8,70,30.03,10.0,WNW,9.2,-,N/A,,Scattered Clouds,290,2012-11-06 11:35:00
5:55 AM,41.0,33.8,76,30.05,10.0,WNW,8.1,-,N/A,,Partly Cloudy,300,2012-11-06 11:55:00
6:15 AM,41.0,33.8,76,30.05,10.0,WNW,12.7,-,N/A,,Clear,300,2012-11-06 12:15:00
6:35 AM,42.8,35.6,76,30.07,10.0,NW,11.5,-,N/A,,Clear,310,2012-11-06 12:35:00
6:55 AM,44.6,35.6,71,30.09,10.0,NW,11.5,-,N/A,,Clear,320,2012-11-06 12:55:00
7:15 AM,44.6,33.8,66,30.11,10.0,NW,11.5,-,N/A,,Clear,310,2012-11-06 13:15:00
7:35 AM,44.6,30.2,57,30.12,10.0,NW,13.8,23.0,N/A,,Clear,320,2012-11-06 13:35:00
7:55 AM,42.8,30.2,61,30.13,10.0,WNW,9.2,-,N/A,,Clear,300,2012-11-06 13:55:00
8:15 AM,44.6,32.0,61,30.14,10.0,NW,9.2,-,N/A,,Clear,310,2012-11-06 14:15:00
8:35 AM,44.6,32.0,61,30.15,10.0,WNW,11.5,-,N/A,,Clear,300,2012-11-06 14:35:00
8:55 AM,46.4,30.2,53,30.16,10.0,NW,15.0,-,N/A,,Clear,320,2012-11-06 14:55:00
9:15 AM,48.2,28.4,46,30.16,10.0,NW,16.1,23.0,N/A,,Clear,320,2012-11-06 15:15:00
9:35 AM,48.2,28.4,46,30.17,10.0,NW,18.4,-,N/A,,Clear,320,2012-11-06 15:35:00
9:55 AM,50.0,28.4,43,30.17,10.0,NW,19.6,26.5,N/A,,Clear,320,2012-11-06 15:55:00
10:15 AM,51.8,26.6,38,30.17,10.0,NW,20.7,27.6,N/A,,Clear,320,2012-11-06 16:15:00
10:35 AM,53.6,26.6,35,30.17,10.0,NW,19.6,26.5,N/A,,Clear,310,2012-11-06 16:35:00
10:55 AM,53.6,24.8,33,30.17,10.0,NW,21.9,25.3,N/A,,Clear,310,2012-11-06 16:55:00
11:15 AM,55.4,21.2,26,30.16,10.0,NW,21.9,29.9,N/A,,Clear,310,2012-11-06 17:15:00
11:35 AM,55.4,23.0,29,30.15,10.0,NW,18.4,27.6,N/A,,Clear,310,2012-11-06 17:35:00
11:55 AM,57.2,21.2,25,30.14,10.0,WNW,19.6,29.9,N/A,,Clear,300,2012-11-06 17:55:00
12:15 PM,57.2,21.2,25,30.13,10.0,NW,20.7,31.1,N/A,,Clear,310,2012-11-06 18:15:00
12:35 PM,57.2,21.2,25,30.12,10.0,NW,25.3,33.4,N/A,,Clear,310,2012-11-06 18:35:00
12:55 PM,59.0,21.2,23,30.12,10.0,WNW,23.0,31.1,N/A,,Clear,300,2012-11-06 18:55:00
1:15 PM,59.0,21.2,23,30.11,10.0,NW,29.9,34.5,N/A,,Clear,310,2012-11-06 19:15:00
1:35 PM,60.8,23.0,23,30.11,10.0,NW,24.2,29.9,N/A,,Clear,310,2012-11-06 19:35:00
1:55 PM,59.0,21.2,23,30.11,10.0,WNW,26.5,36.8,N/A,,Clear,300,2012-11-06 19:55:00
2:15 PM,60.8,21.2,22,30.10,10.0,WNW,26.5,40.3,N/A,,Clear,300,2012-11-06 20:15:00
2:35 PM,60.8,21.2,22,30.10,10.0,NW,25.3,36.8,N/A,,Clear,310,2012-11-06 20:35:00
2:55 PM,60.8,21.2,22,30.10,10.0,WNW,25.3,32.2,N/A,,Clear,300,2012-11-06 20:55:00
3:15 PM,60.8,21.2,22,30.10,10.0,NW,20.7,32.2,N/A,,Clear,310,2012-11-06 21:15:00
3:35 PM,60.8,19.4,20,30.10,10.0,NW,20.7,32.2,N/A,,Clear,310,2012-11-06 21:35:00
3:55 PM,59.0,19.4,22,30.11,10.0,NW,23.0,27.6,N/A,,Clear,320,2012-11-06 21:55:00
4:15 PM,59.0,19.4,22,30.11,10.0,NW,23.0,29.9,N/A,,Clear,310,2012-11-06 22:15:00
4:35 PM,57.2,19.4,23,30.11,10.0,NW,19.6,26.5,N/A,,Clear,320,2012-11-06 22:35:00
4:55 PM,57.2,19.4,23,30.11,10.0,NW,19.6,23.0,N/A,,Clear,310,2012-11-06 22:55:00
5:15 PM,55.4,19.4,25,30.11,10.0,NW,15.0,-,N/A,,Clear,320,2012-11-06 23:15:00
5:35 PM,53.6,19.4,26,30.12,10.0,NW,13.8,-,N/A,,Clear,320,2012-11-06 23:35:00
5:55 PM,51.8,19.4,28,30.13,10.0,NW,12.7,-,N/A,,Clear,320,2012-11-06 23:55:00
6:15 PM,51.8,19.4,28,30.13,10.0,NNW,10.4,-,N/A,,Clear,330,2012-11-07 00:15:00
6:35 PM,48.2,19.4,32,30.14,10.0,NNW,6.9,-,N/A,,Clear,330,2012-11-07 00:35:00
6:55 PM,46.4,19.4,34,30.15,10.0,NNW,5.8,-,N/A,,Clear,330,2012-11-07 00:55:00
7:15 PM,46.4,19.4,34,30.15,10.0,NW,6.9,-,N/A,,Clear,310,2012-11-07 01:15:00
7:35 PM,41.0,19.4,42,30.15,10.0,NW,6.9,-,N/A,,Clear,310,2012-11-07 01:35:00
7:55 PM,39.2,17.6,42,30.15,10.0,NW,5.8,-,N/A,,Clear,320,2012-11-07 01:55:00
8:15 PM,41.0,19.4,42,30.15,10.0,NW,5.8,-,N/A,,Clear,310,2012-11-07 02:15:00
8:35 PM,37.4,17.6,45,30.15,10.0,NW,6.9,-,N/A,,Clear,310,2012-11-07 02:35:00
8:55 PM,37.4,17.6,45,30.15,10.0,WNW,8.1,-,N/A,,Clear,300,2012-11-07 02:55:00
9:15 PM,35.6,17.6,48,30.15,10.0,NW,6.9,-,N/A,,Clear,310,2012-11-07 03:15:00
9:35 PM,33.8,17.6,52,30.15,10.0,WNW,6.9,-,N/A,,Clear,290,2012-11-07 03:35:00
9:55 PM,33.8,19.4,56,30.15,10.0,WNW,8.1,-,N/A,,Clear,300,2012-11-07 03:55:00
10:15 PM,33.8,19.4,56,30.15,10.0,WNW,6.9,-,N/A,,Clear,300,2012-11-07 04:15:00
10:35 PM,35.6,19.4,52,30.15,10.0,NW,4.6,-,N/A,,Clear,320,2012-11-07 04:35:00
10:55 PM,33.8,19.4,56,30.15,10.0,WNW,6.9,-,N/A,,Clear,300,2012-11-07 04:55:00
11:15 PM,35.6,19.4,52,30.14,10.0,NW,5.8,-,N/A,,Clear,320,2012-11-07 05:15:00
11:35 PM,33.8,19.4,56,30.15,10.0,West,9.2,-,N/A,,Clear,270,2012-11-07 05:35:00
11:55 PM,37.4,21.2,52,30.15,10.0,WSW,8.1,-,N/A,,Clear,250,2012-11-07 05:55:00